Location: D�derode
(51.8092°N, 10.1065°E)
Time: 20:22:03
(UTC+00:00)

Cosmos 2360 Rocket - Pass Details

Date: 01 December 2020
Orbit: 834 x 845 km, 71.0° (Epoch: 24 January)

Event Time Altitude Azimuth Distance (km) Brightness Sun altitude
Rises 17:23:42 0° 295° (WNW) 3,387 6.2 -19.3°
Reaches altitude 10° 17:28:07 10° 327° (NNW) 2,455 4.9 -20.0°
Maximum altitude 17:30:02 12° 347° (NNW) 2,339 4.5 -20.3°
Drops below altitude 10° 17:31:57 10° 7° (N) 2,458 4.4 -20.6°
Enters shadow 17:32:43 - 15° (NNE) 2,564 4.5 -20.7°
